Location: Newark
(25.4297°S, 49.2719°W)
Time: 20:35:25
(UTC+00:00)

Courier 1B Rocket - All Passes

Search period start: 19 November 2019 00:00
Search period end: 29 November 2019 00:00
Orbit: 920 x 1202 km, 28.2° (Epoch: 19 November)

Date Brightness Start Highest point End Pass type
(mag) Time Alt. Az. Time Alt. Az. Time Alt. Az.
19 Nov - 02:47:52 10° N 02:52:22 17° NNE 02:56:44 10° ENE night (unlit)
19 Nov - 04:38:44 10° NW 04:45:41 48° NNE 04:52:11 10° E visible
19 Nov - 06:32:11 10° W 06:39:13 85° SSW 06:45:46 10° ESE visible
19 Nov - 08:26:21 10° W 08:32:59 69° S 08:39:17 10° E daylight
19 Nov - 10:20:11 10° WSW 10:26:36 81° NNW 10:32:51 10° ENE daylight
19 Nov - 12:14:14 10° W 12:19:44 32° NNW 12:25:15 10° NE daylight
20 Nov - 01:49:33 10° NNE 01:51:15 11° NNE 01:52:56 10° NE night (unlit)
20 Nov - 03:37:54 10° NW 03:44:35 36° NNE 03:50:54 10° E visible
20 Nov - 05:30:50 10° WNW 05:38:04 81° NNE 05:44:47 10° ESE visible
20 Nov - 07:24:57 10° W 07:31:49 70° S 07:38:15 10° E visible
20 Nov - 09:18:59 10° WSW 09:25:34 84° SSE 09:31:52 10° E daylight
20 Nov - 11:12:52 10° W 11:18:52 45° NNW 11:24:48 10° NE daylight
20 Nov - 13:08:49 10° WNW 13:11:48 14° NNW 13:14:48 10° N daylight
21 Nov - 02:37:24 10° NNW 02:43:29 26° NNE 02:49:19 10° E night (unlit)
21 Nov - 04:29:34 10° WNW 04:36:55 65° NNE 04:43:45 10° E visible
21 Nov - 06:23:30 10° W 06:30:37 75° S 06:37:14 10° ESE visible
21 Nov - 08:17:42 10° WSW 08:24:28 74° S 08:30:50 10° E daylight
21 Nov - 10:11:34 10° W 10:17:57 62° NNW 10:24:07 10° ENE daylight
21 Nov - 12:06:20 10° WNW 12:10:56 21° NNW 12:15:32 10° NNE daylight
22 Nov - 01:37:25 10° N 01:42:22 18° NNE 01:47:12 10° ENE night (unlit)
22 Nov - 03:28:28 10° NW 03:35:45 50° NNE 03:42:36 10° E visible
22 Nov - 05:22:02 10° W 05:29:24 84° SSW 05:36:14 10° ESE visible
22 Nov - 07:16:19 10° W 07:23:17 70° S 07:29:47 10° E visible
22 Nov - 09:10:19 10° WSW 09:16:58 80° NNW 09:23:17 10° ENE daylight
22 Nov - 11:04:33 10° W 11:10:06 31° NNW 11:15:31 10° NNE daylight
23 Nov - 00:38:40 10° NNE 00:41:13 12° NNE 00:43:45 10° NE night (unlit)
23 Nov - 02:27:36 10° NW 02:34:35 38° NNE 02:41:16 10° E night (unlit)
23 Nov - 04:20:37 10° WNW 04:28:10 83° NNE 04:35:13 10° ESE visible
23 Nov - 06:14:51 10° W 06:22:03 70° S 06:28:44 10° E visible
23 Nov - 08:09:00 10° WSW 08:15:54 85° S 08:22:20 10° E daylight
23 Nov - 10:03:03 10° W 10:09:14 45° NNW 10:15:10 10° NE daylight
23 Nov - 11:59:20 10° WNW 12:02:07 13° NNW 12:04:53 10° N daylight
24 Nov - 01:27:05 10° NNW 01:33:27 28° NNE 01:39:37 10° E night (unlit)
24 Nov - 03:19:18 10° WNW 03:26:56 67° NNE 03:34:07 10° E visible
24 Nov - 05:13:19 10° W 05:20:46 75° S 05:27:42 10° ESE visible
24 Nov - 07:07:38 10° WSW 07:14:44 75° S 07:21:20 10° E visible
24 Nov - 09:01:39 10° W 09:08:18 62° NNW 09:14:33 10° ENE daylight
24 Nov - 10:56:37 10° WNW 11:01:17 21° NNW 11:05:49 10° NNE daylight
25 Nov - 00:27:04 10° N 00:32:18 19° NNE 00:37:28 10° ENE night (unlit)
25 Nov - 02:18:11 10° NW 02:25:43 52° NNE 02:32:54 10° E night (unlit)
25 Nov - 04:11:48 10° W 04:19:28 84° SSW 04:26:38 10° ESE visible
25 Nov - 06:06:10 10° W 06:13:30 71° S 06:20:16 10° E visible
25 Nov - 08:00:17 10° WSW 08:07:16 80° NNW 08:13:45 10° ENE daylight
25 Nov - 09:54:43 10° W 10:00:26 31° NNW 10:05:55 10° NNE daylight
25 Nov - 23:28:12 10° N 23:31:09 12° NNE 23:34:06 10° NE visible
26 Nov - 01:17:21 10° NW 01:24:30 39° NNE 01:31:29 10° E night (unlit)
26 Nov - 03:10:22 10° WNW 03:18:09 84° NNE 03:25:32 10° ESE visible
26 Nov - 05:04:38 10° W 05:12:10 71° S 05:19:10 10° E visible
26 Nov - 06:58:54 10° WSW 07:06:09 86° SSE 07:12:49 10° ENE visible
26 Nov - 08:53:05 10° W 08:59:33 45° NNW 09:05:36 10° NE daylight
26 Nov - 10:49:35 10° WNW 10:52:25 13° NNW 10:55:12 10° N daylight
27 Nov - 00:16:51 10° NNW 00:23:20 29° NNE 00:29:45 10° E visible
27 Nov - 02:09:03 10° WNW 02:16:52 69° NNE 02:24:22 10° E night (unlit)
27 Nov - 04:03:05 10° W 04:10:49 75° S 04:18:04 10° ESE visible
27 Nov - 05:57:26 10° WSW 06:04:54 76° S 06:11:47 10° E visible
27 Nov - 07:51:35 10° W 07:58:34 62° NNW 08:05:01 10° ENE visible
27 Nov - 09:46:44 10° WNW 09:51:34 21° NNW 09:56:13 10° NNE daylight
27 Nov - 23:16:52 10° NNW 23:22:11 20° NNE 23:27:32 10° ENE visible
28 Nov - 01:07:59 10° NW 01:15:35 54° NNE 01:23:03 10° E visible
28 Nov - 03:01:34 10° W 03:09:26 83° SSW 03:16:55 10° ESE visible
28 Nov - 04:55:56 10° W 05:03:34 72° S 05:10:41 10° E visible
28 Nov - 06:50:08 10° WSW 06:57:28 79° NNW 07:04:13 10° ENE visible
28 Nov - 08:44:42 10° W 08:50:42 32° NNW 08:56:22 10° NNE daylight
28 Nov - 22:18:02 10° N 22:21:04 13° NE 22:24:08 10° ENE visible
